This is the latest recevied weather packets stored in our database for station/object W6DSP. If no packets are shown the sender has not sent any weather packets the latest 10 day(s).
| Time | Temp. | Humidity | Pressure | Rain* | Wind** | Luminosity | Snow |
|---|---|---|---|---|---|---|---|
| 1777861931 | 8.89° C | 80% | 1011 hPa | 0 mm | - | - | - |
| 1777861226 | 8.89° C | 80% | 1011.1 hPa | 0 mm | - | - | - |
| 1777860516 | 10° C | 78% | 1011.1 hPa | 0 mm | - | - | - |
| 1777859803 | 9.44° C | 78% | 1011.2 hPa | 0 mm | - | - | - |
| 1777859048 | 10° C | 76% | 1011.1 hPa | 0 mm | - | - | - |
| 1777858336 | 10° C | 76% | 1011.2 hPa | 0 mm | - | - | - |
| 1777857635 | 10.56° C | 75% | 1011.3 hPa | 0 mm | - | - | - |
| 1777856939 | 10.56° C | 75% | 1011.1 hPa | 0 mm | - | - | - |
| 1777856248 | 10.56° C | 75% | 1011.1 hPa | 0 mm | - | - | - |
| 1777855533 | 11.11° C | 75% | 1011.2 hPa | 0 mm | - | - | - |
| 1777854816 | 11.11° C | 76% | 1011.1 hPa | 0 mm | - | - | - |
| 1777854068 | 11.11° C | 77% | 1011.4 hPa | 0 mm | - | - | - |
| 1777853356 | 11.11° C | 76% | 1011.6 hPa | 0 mm | - | - | - |
| 1777852653 | 11.11° C | 76% | 1011.6 hPa | 0 mm | - | - | - |
| 1777851901 | 11.11° C | 76% | 1011.8 hPa | 0 mm | - | - | - |
| 1777851149 | 11.11° C | 76% | 1012 hPa | 0 mm | - | - | - |
| 1777850408 | 11.11° C | 76% | 1012 hPa | 0 mm | - | - | - |
| 1777849713 | 11.11° C | 77% | 1012.1 hPa | 0 mm | - | - | - |
| 1777848962 | 11.11° C | 79% | 1012.3 hPa | 0 mm | - | - | - |
| 1777848251 | 11.11° C | 79% | 1012.4 hPa | 0 mm | - | - | - |
| 1777847526 | 11.11° C | 80% | 1012.4 hPa | 0 mm | - | - | - |
| 1777846802 | 10° C | 83% | 1012.5 hPa | 0 mm | - | - | - |
| 1777846047 | 10° C | 83% | 1012.6 hPa | 0 mm | - | - | - |
| 1777845345 | 9.44° C | 83% | 1012.7 hPa | 0 mm | - | - | - |
| 1777844649 | 9.44° C | 84% | 1012.8 hPa | 0 mm | - | - | - |
* Rain latest hour (hover to see other rain measurements)
** Current wind speed in m/s (hover to see current wind gust speed)